Regional Weather Roundup
Issued by NWS

Home | Current Version | Previous Version | Graphics & Text | Print | Product List | Glossary On
Versions: 1 2 3 4 5 6 7 8 9 10 11 12 13 14 15 16 17 18 19 20 21 22 23 24 25 26 27 28 29 30 31 32 33 34 35 36 37 38 39 40 41 42 43 44 45 46 47 48 49 50
564
ASUS44 KLIX 270010
RWRLA
LOUISIANA WEATHER ROUNDUP
NATIONAL WEATHER SERVICE NEW ORLEANS LA
700 PM CDT TUE AUG 26 2014

NOTE: "FAIR" INDICATES FEW OR NO CLOUDS BELOW 12,000 FEET WITH NO
      SIGNIFICANT WEATHER AND/OR OBSTRUCTIONS TO VISIBILITY.
      SKY/WX - SKY CONDITION AND SIGNIFICANT WEATHER.
      TMP - AIR TEMPERATURE.    DP   - DEWPOINT TEMPERATURE.
      RH  - RELATIVE HUMIDITY.  PRES - PRESSURE.
      HX  - HEAT INDEX.         WCI  - WIND CHILL INDEX.

*  THESE STATIONS ARE NOT NWS OR FAA STATIONS AND ARE NOT UNDER
   NWS QUALITY CONTROL.

LAZ040-048-061>063-065-066-069-270100-
SOUTHEAST LOUISIANA

CITY           SKY/WX    TMP DP  RH WIND       PRES   REMARKS
N.O. AUDUBON     N/A     85  72  66 MISG        N/A
6HR MIN TEMP:  85; 6HR MAX TEMP:  90;

N.O. INTL ARPT CLOUDY    85  69  58 E7        29.95S
6HR MIN TEMP:  85; 6HR MAX TEMP:  89;

N.O. LAKEFRONT CLOUDY    84  72  67 E14       29.96S
6HR MIN TEMP:  84; 6HR MAX TEMP:  88;

N.O. DOWNTOWN* FAIR      84  68  58 SE5       29.96S
6HR MIN TEMP:  84; 6HR MAX TEMP:  88;

SLIDELL        MOCLDY    84  73  69 SE5       29.96R
6HR MIN TEMP:  84; 6HR MAX TEMP:  92;

BATON ROUGE    CLOUDY    84  74  71 E3        29.95S
6HR MIN TEMP:  84; 6HR MAX TEMP:  90;

BOOTHVILLE     CLOUDY    84  74  71 E8        29.95F
6HR MIN TEMP:  83; 6HR MAX TEMP:  87;

BELLE CHASSE   CLOUDY    83  70  64 E7        29.95S
6HR MIN TEMP:  83; 6HR MAX TEMP:  89;

BOGALUSA*      FAIR      85  69  56 CALM      29.98S
6HR MIN TEMP:  85; 6HR MAX TEMP:  92;

GALLIANO*      NOT AVBL
NEW ROADS*     FAIR      83  71  68 NE3       29.95S
6HR MIN TEMP:  83; 6HR MAX TEMP:  90;

GONZALES*      FAIR      84  75  73 CALM      29.95S
6HR MIN TEMP:  84; 6HR MAX TEMP:  90;

HAMMOND*       CLOUDY    84  72  65 CALM      29.97S
HOUMA*         PTCLDY    82  72  69 E5        29.95S
PORT FOURCHON* CLEAR     82  75  78 NE13      29.95F

$$

LAZ041-044-053-054-270100-
SOUTHWEST LOUISIANA

CITY           SKY/WX    TMP DP  RH WIND       PRES   REMARKS
LAKE CHARLES   CLOUDY    85  73  67 E6        29.94R
6HR MIN TEMP:  85; 6HR MAX TEMP:  91;

LAFAYETTE      CLOUDY    82  75  79 SE3       29.95S
6HR MIN TEMP:  82; 6HR MAX TEMP:  88;

PATTERSON        N/A     79  75  89 CALM      29.97F
6HR MIN TEMP:  75; 6HR MAX TEMP:  86;

SALT POINT       N/A     80  76  87 VRB3      29.93F
6HR MIN TEMP:  77; 6HR MAX TEMP:  86;

NEW IBERIA     CLOUDY    81  77  88 CALM      29.96S
6HR MIN TEMP:  79; 6HR MAX TEMP:  90; 6HR PCP:  0.01;

CHENAULT AIRPK MOCLDY    84  72  65 E3        29.95R

$$

LAZ027-028-270100-
CENTRAL LOUISIANA

CITY           SKY/WX    TMP DP  RH WIND       PRES   REMARKS
FORT POLK      MOCLDY    87  68  52 E3        29.96R
6HR MIN TEMP:  87; 6HR MAX TEMP:  92;

ALEXANDRIA INT MOCLDY    86  67  52 NE6       29.94S
6HR MIN TEMP:  86; 6HR MAX TEMP:  92;

ALEXANDRIA     MOCLDY    82  72  71 CALM      29.97R
6HR MIN TEMP:  82; 6HR MAX TEMP:  92;


$$

LAZ001-002-270100-
NORTHWEST LOUISIANA

CITY           SKY/WX    TMP DP  RH WIND       PRES   REMARKS
SHREVEPORT     PTCLDY    90  69  50 E12       29.95F
6HR MIN TEMP:  90; 6HR MAX TEMP:  95;

BARKSDALE AFB  PTCLDY    89  69  51 E7        29.97S
6HR MIN TEMP:  89; 6HR MAX TEMP:  95;

DTN SHREVEPORT PTCLDY    89  69  51 E8        29.96F
6HR MIN TEMP:  89; 6HR MAX TEMP:  94;


$$

LAZ014-016-270100-
NORTHEAST LOUISIANA

CITY           SKY/WX    TMP DP  RH WIND       PRES   REMARKS
MONROE         CLEAR     87  65  47 E3        29.98S
6HR MIN TEMP:  87; 6HR MAX TEMP:  93;

TALLULAH       CLEAR     86  63  45 NE5       29.98S
6HR MIN TEMP:  86; 6HR MAX TEMP:  92;


$$




USA.gov is the U.S. government's official web portal to all federal, state and local government web resources and services.